Weather History for Columbia, SC

Change the Weather History Date:

Tuesday, December 11, 2012

  Actual Average Record
Temperature  
Mean Temperature 60 °F 48 °F  
Max Temperature 66 °F 59 °F 80 °F (2007)
Min Temperature 54 °F 36 °F 16 °F (1977)
Degree Days  
Heating Degree Days 5 18  
Month to date heating degree days 53 180  
Since 1 July heating degree days 514 621  
Cooling Degree Days 0 0  
Month to date cooling degree days 0 0  
Year to date cooling degree days 2505 2167  
Growing Degree Days 10 (Base 50)    
Moisture  
Dew Point 50 °F    
Average Humidity 74    
Maximum Humidity 100    
Minimum Humidity 48    
Precipitation  
Precipitation 0.00 in 0.11 in 1.58 in (2008)
Month to date precipitation T 1.11  
Year to date precipitation 39.25 42.48  
Sea Level Pressure  
Sea Level Pressure 29.90 in    
Wind  
Wind Speed 4 mph (WNW)    
Max Wind Speed 10 mph    
Max Gust Speed 12 mph    
Visibility 8 miles    
Events Fog    
T = Trace of Precipitation, MM = Missing Value Source: NWS Daily Summary

Daily Weather History Graph

Daily Weather History Graph

Search for Another Location

Airport:

Trip Planner

Search our weather history database for the weather conditions in past years. The results will help you decide how hot, cold, wet, or windy it might be!

Date:

Astronomy

Dec. 11, 2012 Rise Set
Actual Time 7:19 AM EST 5:16 PM EST
Civil Twilight 6:52 AM EST 5:43 PM EST
Nautical Twilight 6:21 AM EST 6:14 PM EST
Astronomical Twilight 5:50 AM EST 6:45 PM EST
Moon 5:15 AM EST (12/11) 3:51 PM EST (12/11)
Length of Visible Light 10h 51m
Length of Day
9h 56m
Waning Crescent, 4% of the Moon is Illuminated
Dec 11
Waning Crescent
Dec 13
New
Dec 20
First Quarter
Dec 28
Full
Jan 4
Last Quarter

Hourly Weather History & Observations

Time (EST) Temp. Dew Point Humidity Pressure Visibility Wind Dir Wind Speed Gust Speed Precip Events Conditions
12:56 AM 59.0 °F 55.9 °F 90% 29.75 in 8.0 mi Calm Calm - N/A   Partly Cloudy
1:07 AM 57.2 °F 55.4 °F 94% 29.76 in 1.8 mi Calm Calm - N/A   Partly Cloudy
1:15 AM 55.4 °F 55.4 °F 100% 29.76 in 1.2 mi WNW 4.6 mph - N/A   Partly Cloudy
1:22 AM 57.2 °F 57.2 °F 100% 29.76 in 3.0 mi Calm Calm - N/A   Partly Cloudy
1:56 AM 55.9 °F 54.0 °F 93% 29.78 in 8.0 mi Calm Calm - N/A   Partly Cloudy
2:24 AM 57.2 °F 55.4 °F 94% 29.79 in 0.8 mi Calm Calm - N/A   Scattered Clouds
2:56 AM 55.0 °F 54.0 °F 96% 29.79 in 0.5 mi Calm Calm - N/A Fog Fog
3:14 AM 55.4 °F 53.6 °F 94% 29.80 in 0.5 mi West 4.6 mph - N/A Fog Fog
3:22 AM 53.6 °F 53.6 °F 100% 29.80 in 6.0 mi West 3.5 mph - N/A   Overcast
3:56 AM 55.9 °F 55.0 °F 97% 29.81 in 6.0 mi Calm Calm - N/A   Overcast
4:56 AM 57.9 °F 55.9 °F 93% 29.83 in 6.0 mi Calm Calm - N/A   Overcast
5:56 AM 60.1 °F 57.0 °F 90% 29.85 in 10.0 mi Calm Calm - N/A   Overcast
6:56 AM 60.1 °F 57.0 °F 90% 29.88 in 9.0 mi West 5.8 mph - N/A   Overcast
7:27 AM 60.8 °F 53.6 °F 77% 29.89 in 10.0 mi West 5.8 mph - N/A   Overcast
7:56 AM 59.0 °F 54.0 °F 83% 29.90 in 10.0 mi West 5.8 mph - N/A   Overcast
8:56 AM 61.0 °F 50.0 °F 67% 29.91 in 10.0 mi WSW 5.8 mph - N/A   Overcast
9:56 AM 61.0 °F 50.0 °F 67% 29.95 in 10.0 mi WSW 5.8 mph - N/A   Overcast
10:56 AM 62.1 °F 46.9 °F 58% 29.96 in 10.0 mi West 6.9 mph - N/A   Overcast
11:56 AM 64.4 °F 48.2 °F 56% 29.95 in 10.0 mi SW 6.9 mph - N/A   Mostly Cloudy
12:56 PM 66.0 °F 46.0 °F 48% 29.94 in 10.0 mi SW 5.8 mph - N/A   Mostly Cloudy
1:56 PM 64.9 °F 45.0 °F 48% 29.95 in 10.0 mi WSW 5.8 mph - N/A   Overcast
2:56 PM 63.0 °F 48.0 °F 58% 29.96 in 10.0 mi NW 3.5 mph - N/A   Overcast
3:56 PM 62.1 °F 46.9 °F 58% 29.97 in 10.0 mi NNW 5.8 mph - N/A   Overcast
4:56 PM 61.0 °F 46.0 °F 58% 29.99 in 10.0 mi NNW 4.6 mph - N/A   Overcast
5:56 PM 59.0 °F 44.1 °F 58% 30.01 in 10.0 mi NW 8.1 mph - N/A   Mostly Cloudy
6:56 PM 59.0 °F 41.0 °F 51% 30.03 in 10.0 mi NW 6.9 mph - N/A   Mostly Cloudy
7:56 PM 57.9 °F 41.0 °F 53% 30.03 in 10.0 mi NNW 5.8 mph - N/A   Overcast
8:56 PM 57.0 °F 42.1 °F 57% 30.06 in 10.0 mi NW 5.8 mph - N/A   Mostly Cloudy
9:56 PM 57.0 °F 42.1 °F 57% 30.08 in 10.0 mi NW 3.5 mph - N/A   Overcast
10:56 PM 55.9 °F 42.1 °F 60% 30.08 in 10.0 mi NNW 3.5 mph - N/A   Mostly Cloudy
11:56 PM 55.0 °F 42.1 °F 62% 30.09 in 10.0 mi NNW 3.5 mph - N/A   Overcast